Weather Roundup
Issued by NWS

Home | Current Version | Previous Version | Text Only | Print | Product List | Glossary On
Versions: 1 2 3 4 5 6 7 8 9 10 11 12 13 14 15 16 17 18 19 20 21 22 23 24 25 26 27 28 29 30 31 32 33 34 35 36 37 38 39 40 41 42 43 44 45 46 47 48 49 50
286
NZUS93 KARX 252210
HRRWXR

CURRENT HOURLY OBSERVATIONS ACROSS
MUCH OF THE UPPER MISSISSIPPI VALLEY
NATIONAL WEATHER SERVICE LA CROSSE WI
500 PM CDT SUN SEP 25 2016


...SOUTHEAST MINNESOTA...


CITY           SKY/WX    TMP DP  RH WIND       PRES   REMARKS
ROCHESTER      CLOUDY    63  52  67 W16G24    29.95R
ROCHESTER/MAYO   N/A     63  51  66 W13G25    29.94R
WINONA         PTSUNNY   70  54  56 W9G16     29.90S
AUSTIN         CLOUDY    61  52  72 W18G25    29.98R
ALBERT LEA     CLOUDY    57  55  94 W5        29.99R FOG
DODGE CENTER   CLOUDY    61  52  72 W17G23    29.95R
PRESTON        CLOUDY    63  51  64 W20G25    29.95R
OWATONNA       DRIZZLE   59  55  88 W8        29.96R
FARIBAULT      CLOUDY    61  55  82 W12G18    29.95S
$$

...ELSEWHERE IN MINNESOTA...


CITY           SKY/WX    TMP DP  RH WIND       PRES   REMARKS
MINNEAPOLIS    CLOUDY    61  53  75 W12G21    29.90S
INTNL FALLS    CLOUDY    58  53  84 SW10      29.67S
DULUTH         CLOUDY    60  53  77 W13G22    29.77F
RED WING       CLOUDY    66  52  59 W13       29.89R
REDWOOD FALLS  CLOUDY    62  47  57 W15G23    29.97S
MANKATO        CLOUDY    60  52  74 W21G26    29.97R
WORTHINGTON    CLOUDY    62  46  55 W24G31    30.04F
FAIRMONT       CLOUDY    59  52  77 W15       30.02R
$$

...SOUTHWEST WISCONSIN...


CITY           SKY/WX    TMP DP  RH WIND       PRES   REMARKS
LA CROSSE      CLOUDY    69  54  58 W7G20     29.90R
PRAIRIE DU CHI MOSUNNY   68  52  56 W14G20    29.94R
BOSCOBEL       MOSUNNY   73  60  63 SW13      29.91R
LONE ROCK      CLOUDY    74  65  73 W9G21     29.89R
PLATTEVILLE    CLOUDY    73  67  80 W16G26    29.92R
FORT MC COY    CLOUDY    69  57  63 W16G24    29.90R
CAMP DOUGLAS   CLOUDY    72  64  74 W14G25    29.86
MAUSTON-NEW LI CLOUDY    74  66  76 SW7       29.86R
VIROQUA        FAIR      67  54  62 W10G21    29.92R
WIS DELLS      CLOUDY    73  64  74 SW8       29.87S
$$

...ELSEWHERE IN WISCONSIN...


CITY           SKY/WX    TMP DP  RH WIND       PRES   REMARKS
MILWAUKEE      TSTM      73  67  81 CALM      29.90R
MADISON        CLOUDY    76  66  71 SW7G17    29.87R
GREEN BAY      LGT RAIN  68  68 100 S8        29.86R
EAU CLAIRE     CLOUDY    64  52  64 W18G30    29.88R
BLACK RVR FLS  FAIR      68  52  56 W15G22    29.88R
MEDFORD        CLOUDY    65  56  73 W14G23    29.85R
WAUSAU         PTSUNNY   69  66  90 SW6       29.82S
WIS RAPIDS     CLOUDY    72  68  87 W8        29.85S
MARSHFIELD     CLOUDY    70  60  70 W13       29.85R
RICE LAKE      PTSUNNY   64  50  61 SW15G21   29.87F
$$

...NORTHEAST IOWA...


CITY           SKY/WX    TMP DP  RH WIND       PRES   REMARKS
WATERLOO       CLOUDY    67  49  52 W22G30    29.97F
DUBUQUE        MOSUNNY   70  58  65 W17G28    29.95R
DECORAH        CLOUDY    64  54  68 W8G17     29.94F
MASON CITY     CLOUDY    61  51  70 W18G29    30.02R
CHARLES CITY   CLOUDY    66  48  52 W15G29    29.98S
OELWEIN        CLOUDY    66  52  59 W15G21    29.98S
$$

...ELSEWHERE IN IOWA...


CITY           SKY/WX    TMP DP  RH WIND       PRES   REMARKS
DES MOINES     CLOUDY    68  50  52 NW17      30.05R
IOWA CITY      LGT RAIN  69  56  62 W15       30.01R
FORT DODGE     CLOUDY    61  48  63 W13G23    30.07R
MARSHALLTOWN   CLOUDY    66  51  58 W22G30    30.02R
CEDAR RAPIDS   CLOUDY    66  54  65 W21G29    29.99R
$$

...NORTHERN ILLINOIS...


CITY           SKY/WX    TMP DP  RH WIND       PRES   REMARKS
CHICAGO-OHARE  PTSUNNY   84  67  56 S14       29.88F
CHICAGO-MIDWAY CLOUDY    85  67  54 S10       29.89F
MOLINE         CLOUDY    77  65  66 W13       29.93S
ROCKFORD       MOSUNNY   82  68  62 SW8       29.89F
PEORIA         MOSUNNY   86  66  51 W14G21    29.93F
$$

NOTE: "FAIR" INDICATES FEW OR NO CLOUDS BELOW 12,000 FEET WITH NO
SIGNIFICANT WEATHER AND/OR OBSTRUCTIONS TO VISIBILITY. WIND
SPEEDS ARE IN MILES-PER-HOUR.




USA.gov is the U.S. government's official web portal to all federal, state and local government web resources and services.